{"data":{"norad_id":56533,"epoch":"2026-09-20T03:09:12.006144Z","epoch_age_seconds":146607,"freshness":"FRESH","line1":"1 56533U 23065AG  26263.13138896 -.00001091  00000+0 -30142-4 0  9992","line2":"2 56533  43.0002 179.9451 0001090 205.0011 155.0788 15.27579701186506","mean_motion":15.27579701,"eccentricity":0.000109,"inclination_deg":43.0002,"raan_deg":179.9451,"arg_perigee_deg":205.0011,"mean_anomaly_deg":155.0788,"bstar":-3.0142e-5,"rev_number":18650,"period_min":94.266767164904,"perigee_km":482.30212197131,"apogee_km":483.79786073542,"semimajor_km":6861.1869913534,"source":"CELESTRAK","updated_at":"2026-09-21T09:00:33.475274Z"}}